Wind_Speed
13 12 13 11 10 9 8 7 7 8 8 8 7 9 10 12 7 11 11 11 12 12 13 12 12 11 11 13 13 10 10 7
14 9 7 8 10 10 9 9 9 9 11 12 8 6 8 9 9 13 14 13 15 13 15 16 11 7 9 12 15 8 9 14
13 11 9 8 8 9 9 7 9 8 7 10 7 8 6 6 10 10 11 15 17 11 13 16 11 11 12 10 12 12 12 10
10 10 7 5 7 4 5 5 7 7 5 6 9 7 3 7 8 9 9 15 13 10 15 14 10 14 13 12 14 14 13 11
16 8 5 1 7 2 7 8 7 3 8 5 5 5 6 8 11 11 15 14 10 16 14 15 14 15 13 14 15 14 14 15
18 12 6 3 2 6 7 9 6 6 6 4 4 5 5 7 7 9 11 12 13 11 12 14 14 12 14 13 13 14 15 18
19 17 9 5 4 5 4 4 4 5 4 3 3 4 4 6 7 9 10 12 12 12 15 15 15 14 15 11 14 15 16 17
23 20 15 8 4 5 4 4 2 4 3 5 3 3 5 6 8 10 12 13 14 16 18 18 17 16 15 16 16 17 19 18
22 23 20 11 7 6 3 6 2 0 0 1 1 2 5 7 8 10 13 15 16 18 19 19 20 20 20 20 18 21 22 20
2 25 18 12 8 8 5 4 1 5 3 1 3 1 4 7 10 13 15 18 18 19 21 21 21 22 24 23 23 24 24 23
15 16 14 12 10 7 5 3 3 6 7 3 7 8 6 10 14 17 20 20 19 22 22 21 20 22 25 26 27 25 27 27
8 12 7 10 12 5 4 6 6 2 5 4 7 8 9 14 16 17 19 20 21 21 23 25 25 26 26 26 28 30 32 32
22 16 8 5 2 0 8 11 11 8 9 7 10 9 14 17 18 17 19 20 21 23 24 25 25 24 26 24 26 28 30 30
17 14 11 11 8 8 7 7 5 7 7 15 14 16 20 20 21 18 15 18 21 22 23 25 24 22 22 22 11 21 25 26
15 14 12 10 11 8 8 8 8 11 15 15 15 19 21 18 19 20 20 17 19 23 23 22 19 21 20 17 9 11 16 23
11 9 9 8 6 3 4 5 7 10 11 18 23 16 13 19 21 21 21 19 21 21 18 21 19 18 17 15 20 21 4 9
6 3 3 2 3 4 6 10 13 16 13 12 16 15 20 21 20 21 20 24 22 21 17 16 11 10 13 15 19 24 20 5
3 5 6 4 3 6 11 10 10 15 16 15 17 19 19 19 21 21 20 19 19 15 14 12 11 11 10 11 11 6 12 8
6 12 17 15 10 5 10 12 13 14 16 16 19 19 18 22 22 21 19 18 15 10 9 10 10 11 12 15 15 11 10 13
11 8 14 17 15 11 9 11 12 12 13 15 15 16 17 19 20 20 13 9 10 9 10 11 14 18 17 15 18 16 13 12
Wind_Direction
103 94 86 83 79 82 81 80 78 70 63 56 48 63 41 33 40 27 15 13 8 5 3 358 353 351 356 347 339 333 322 327
127 99 79 115 75 78 80 80 76 71 68 43 52 63 49 34 18 3 1 5 2 2 5 0 352 351 353 356 348 316 326 335
125 112 104 140 101 77 87 79 81 78 70 30 21 42 36 20 336 347 3 3 357 355 356 354 348 342 320 327 340 327 326 302
122 120 118 122 121 126 133 89 89 83 60 17 57 24 315 355 325 337 348 343 349 349 340 339 338 342 330 323 313 309 298 293
135 132 133 99 89 104 107 120 94 86 114 34 39 6 30 13 1 4 348 337 1 337 334 333 322 318 315 308 300 301 293 298
147 144 138 126 82 78 74 78 71 75 34 75 32 27 15 15 359 341 340 335 327 326 327 320 317 312 303 297 303 300 297 300
161 151 145 141 112 86 76 71 104 87 73 75 50 49 27 6 354 345 337 332 330 329 321 315 310 311 309 287 289 286 286 286
165 161 152 161 146 138 156 144 65 86 108 46 35 27 355 346 341 334 326 323 320 317 307 300 295 287 284 285 275 270 271 273
175 156 148 153 168 168 198 136 103 140 151 153 237 309 324 324 317 310 305 305 301 304 301 300 297 293 286 281 278 275 261 262
149 163 141 142 185 174 204 127 93 261 217 311 195 269 306 301 309 308 308 305 305 300 297 298 297 297 294 288 282 273 266 263
179 147 135 150 174 200 199 241 283 322 341 42 31 1 336 339 325 314 310 309 306 304 302 302 303 300 297 293 292 290 273 261
77 117 121 146 157 198 267 238 249 277 23 21 5 341 350 335 322 318 319 316 310 309 311 311 306 300 296 291 290 285 278 278
89 111 75 86 122 47 25 14 6 11 359 33 355 331 343 334 321 315 316 318 318 317 312 306 304 305 304 300 296 293 290 279
83 78 65 49 70 46 39 6 344 339 358 5 356 349 339 328 315 321 318 318 318 315 315 315 309 308 306 304 302 295 291 288
75 75 63 55 42 63 31 356 344 348 335 335 321 315 319 316 326 326 328 319 315 308 307 309 324 317 312 309 310 296 309 297
76 75 74 52 46 55 9 337 320 325 326 317 321 327 341 342 333 330 330 322 319 309 316 318 313 312 326 341 340 350 335 311
66 77 88 69 2 338 320 339 337 322 330 337 341 353 346 336 328 330 327 324 313 307 311 313 325 355 347 340 339 337 333 319
10 330 328 274 269 358 341 332 344 346 349 2 355 347 334 328 331 329 322 318 323 334 344 345 345 337 333 346 347 348 323 317
307 344 339 332 321 351 350 2 7 7 1 0 350 336 338 333 328 327 322 324 332 355 5 13 4 353 346 314 307 297 289 292
336 339 324 330 334 349 12 13 8 359 358 347 337 334 329 326 336 333 342 340 341 334 345 327 321 310 301 289 291 286 275 276
Height
824 828 830 831 833 835 835 837 839 839 841 840 841 841 842 842 843 843 842 840 840 839 838 837 835 833 830 828 827 826 824 826
827 827 830 833 834 836 837 838 838 839 840 842 841 841 842 842 843 843 842 841 840 839 838 837 834 832 831 829 827 826 825 825
827 830 833 834 834 837 838 837 838 838 840 841 841 840 841 842 843 843 842 840 839 838 837 837 835 833 831 829 827 826 826 825
827 832 833 834 835 835 836 835 837 838 839 842 843 842 842 842 842 841 841 840 838 837 837 835 834 833 832 829 828 826 824 824
827 832 833 834 835 836 837 838 838 839 839 841 841 841 841 841 842 841 840 839 838 837 836 835 834 833 832 830 828 825 824 823
823 829 833 833 835 836 835 837 838 839 839 840 841 840 840 840 841 841 841 840 838 837 836 835 833 832 830 829 828 826 824 822
820 823 830 833 833 835 836 838 838 838 839 839 840 840 840 840 840 840 839 838 837 835 834 833 831 830 828 826 825 824 823 821
814 816 823 830 832 834 836 838 838 838 838 839 840 840 839 839 839 838 838 837 835 833 831 829 827 826 824 823 821 820 819 818
813 813 814 826 831 834 836 836 837 838 837 838 839 839 838 838 837 836 835 834 832 830 829 827 825 823 820 818 817 815 814 813
811 809 815 823 830 834 836 835 837 837 837 837 837 837 835 835 835 835 834 832 830 828 825 823 821 820 817 815 813 810 809 807
812 812 816 822 829 833 834 835 837 836 836 836 836 837 835 835 835 834 833 830 828 826 823 821 818 816 814 812 809 806 804 802
811 816 821 825 828 832 834 834 835 835 835 834 836 837 835 835 834 832 831 829 826 824 821 819 816 813 810 807 804 802 800 799
817 820 826 828 829 831 832 833 834 834 836 836 837 836 835 835 834 830 828 827 825 822 820 816 813 811 806 802 799 797 795 792
823 826 828 830 830 833 835 835 836 837 837 836 836 835 836 835 834 830 825 824 823 821 817 813 810 809 806 802 796 792 791 789
828 830 832 832 833 834 836 836 834 833 832 834 833 832 832 833 832 829 825 822 820 817 814 811 807 806 806 805 799 792 787 786
832 834 834 835 835 836 837 836 835 833 832 833 831 830 829 830 829 826 823 820 818 815 812 809 807 804 802 803 801 800 795 783
835 835 835 836 837 837 837 836 834 833 833 832 831 829 828 828 827 824 820 817 815 812 809 806 805 803 802 801 800 799 798 796
836 836 835 833 834 835 834 834 833 832 832 830 830 829 829 828 824 821 818 816 813 810 808 805 803 803 800 802 801 800 800 798
834 834 834 833 831 831 832 831 831 832 831 831 830 829 827 825 823 819 816 814 810 807 806 805 803 803 801 801 800 797 797 797
831 832 834 833 831 830 830 831 831 832 830 830 830 827 825 823 821 818 814 811 808 806 805 804 802 801 799 798 796 794 792 790